PROGRESS-MS 22 (55560 NORAD) Tracking and Keplerian Element Data

This shows tracking and keplerian element data for the satellite.

Feedback or suggestion? Click here.




ElementValue
Catalog55560
NamePROGRESS-MS 22
Epoch Orbit39533
Epoch Day126.56804023
Epoch Year2023
RAAN174.8024
Inclination51.6416
Eccentricity0.0006077
Argument of Perigee314.0117
Mean Anonmoly197.6522
Mean Motion15.49958313
Decay Rate0.00012267
L11 55560U 23018A 23126.56804023 .00012267 00000+0 22283-3 0 9994
L22 55560 51.6416 174.8024 0006077 314.0117 197.6522 15.49958313395332



Live tracking and technical data element details for PROGRESS-MS 22 (NORAD 55560). PROGRESS-MS 22 can be tracked NOW for your location showing map with azimuth and elevation plus other details from your city location.







IsCatalogInMostPopularTable: catalog: 55560, numindb: -1

Insert: records affected: 1


GetName: 55560 PROGRESS-MS 22

Hit Count: inserted at: Mon, 05 Jun 2023 20:33:31 GMT